Temp
6 6 6 6 6 5 5 5 5 5 5 5 5 5 5 5 6 6 6 6 6 6 6 6 5 5 5 5 5 5 5 5 4 4 4 4 3 3 3 3 3 3 3 3 3 3 3 3 3 3 4 4 4 4 4 4 4 4 4 4 4 4 4 4 4 4 4 4 4 4 4 3 4 4 4 4 4 4 4 4 4 4 4 5 5 5
6 5 5 5 5 5 5 4 5 5 5 5 5 5 5 5 5 5 5 6 6 5 5 5 5 5 5 5 4 4 4 4 4 4 4 3 3 3 3 3 3 3 3 3 3 3 3 3 3 3 3 3 3 3 3 3 3 3 3 3 3 3 3 3 3 3 3 3 3 3 3 3 3 3 4 4 4 4 4 4 4 4 4 4 5 5
5 5 5 4 5 5 5 4 4 4 5 5 5 5 5 5 5 5 5 5 5 5 5 5 5 5 5 4 4 4 4 4 4 4 4 3 3 3 3 3 2 2 2 2 2 2 2 2 2 3 3 3 3 3 3 3 3 3 3 3 3 3 3 3 3 3 3 3 3 3 3 3 3 3 3 3 4 4 3 3 4 4 4 4 4 5
4 4 4 4 4 4 4 4 4 4 4 5 5 5 5 5 5 5 5 5 5 4 4 4 4 4 4 4 4 4 4 3 3 3 3 3 3 3 3 2 2 2 2 2 2 2 2 2 2 2 2 2 2 2 3 3 3 3 3 3 3 3 3 2 2 2 3 3 3 3 3 3 3 3 3 3 3 3 3 3 3 3 3 4 4 4
4 4 4 4 4 4 4 4 4 4 4 4 5 5 5 5 5 5 4 4 4 4 4 4 4 4 4 4 3 3 3 3 3 3 3 3 3 3 2 2 2 2 2 2 2 2 2 2 2 2 2 2 2 2 2 2 2 2 2 2 2 2 2 2 2 2 2 2 2 2 2 3 3 3 3 3 3 3 3 3 3 3 3 3 4 4
4 4 4 3 3 3 3 3 3 4 4 4 4 4 4 4 4 4 4 4 4 3 3 3 3 3 3 3 3 3 3 3 3 3 3 3 2 2 2 2 2 2 2 2 2 1 1 1 1 1 1 1 1 1 1 1 1 1 2 2 2 2 2 2 2 2 2 2 2 2 2 2 2 2 2 3 3 3 3 3 3 3 3 3 3 3
3 3 3 3 3 3 3 3 3 3 4 4 4 4 4 4 4 4 3 3 3 3 3 3 3 3 3 3 3 2 2 2 2 2 2 2 2 2 2 2 2 2 2 2 1 1 1 1 1 1 1 1 1 1 1 1 1 1 1 1 1 1 1 1 1 1 1 2 2 2 2 2 2 2 2 2 2 2 2 2 2 3 3 3 3 3
3 3 3 3 3 3 3 3 3 3 3 3 3 3 3 3 3 3 3 3 3 3 2 2 2 2 2 2 2 2 2 2 2 2 2 2 2 2 2 2 2 2 1 1 1 1 1 1 1 1 1 1 1 1 1 1 1 1 1 1 1 1 1 1 1 1 1 1 1 1 1 2 2 2 2 2 2 2 2 2 2 2 2 3 3 3
3 3 3 3 3 2 2 2 2 3 3 3 3 3 2 2 2 2 2 2 2 2 2 2 2 2 2 2 2 2 2 2 2 2 2 2 2 2 2 2 1 1 1 1 1 1 1 1 1 1 1 1 0 1 1 1 1 1 1 1 1 1 1 0 1 1 1 1 1 1 1 1 1 1 1 1 1 2 2 2 2 2 2 2 2 3
4 3 3 2 3 2 2 2 2 2 3 3 3 3 2 2 2 2 2 2 2 1 1 1 1 1 1 1 2 2 2 2 2 2 2 2 2 2 1 1 1 1 1 1 1 1 1 1 1 0 0 0 0 0 1 1 1 1 0 0 0 0 0 0 0 0 0 0 0 0 0 0 0 1 1 1 1 1 1 1 2 2 2 2 2 2
3 3 3 2 2 2 2 2 2 2 2 2 2 2 2 2 2 1 1 1 1 1 1 1 1 1 1 1 1 1 1 1 1 2 2 2 2 2 1 1 1 1 1 1 1 1 0 0 0 0 0 0 0 0 0 0 0 0 0 0 0 -0 -0 -0 -0 -0 -0 -0 -0 -0 -0 0 0 0 0 0 1 1 1 1 1 1 2 2 2 2
3 3 2 2 2 2 2 2 2 2 2 2 2 1 1 2 2 2 1 1 1 1 1 1 1 1 1 1 1 1 1 1 1 1 1 1 1 1 1 1 1 1 1 1 1 1 0 0 0 0 0 0 0 0 0 0 0 0 0 -0 -0 -0 -0 -0 -0 -0 -0 -0 -0 -0 -0 -0 -0 -0 -0 0 0 0 0 1 1 1 1 1 2 2
3 2 2 2 2 1 1 1 1 1 1 1 2 2 1 1 2 2 2 1 1 0 1 1 1 1 1 1 1 1 1 1 1 1 1 1 1 1 1 1 1 1 1 1 1 1 0 0 0 0 0 0 0 -0 -0 -0 -0 -0 -0 -0 -0 -1 -1 -1 -1 -1 -1 -1 -1 -1 -1 -0 -0 -0 -0 -0 -0 -0 0 0 0 1 1 1 1 1
2 2 2 2 1 1 1 1 1 1 1 1 2 2 1 1 1 2 1 1 1 0 1 0 0 0 1 1 1 1 1 1 1 1 1 1 1 1 1 1 1 1 1 1 0 0 0 0 0 0 0 0 -0 -0 -0 -0 -0 -0 -0 -1 -1 -1 -1 -1 -1 -1 -1 -1 -1 -1 -1 -1 -1 -1 -0 -0 -0 -0 -0 -0 0 0 0 1 1 1
2 2 2 2 1 1 1 1 1 1 1 1 2 2 1 1 1 1 1 0 0 0 0 0 0 0 0 0 1 1 1 1 1 1 1 1 1 1 1 1 1 1 0 0 0 0 0 0 0 0 0 -0 -0 -0 -0 -0 -0 -0 -1 -1 -1 -1 -1 -1 -1 -1 -1 -1 -1 -1 -1 -1 -1 -1 -1 -1 -1 -0 -0 -0 -0 -0 0 0 0 1
2 2 2 2 2 1 1 1 1 2 1 1 1 1 1 1 1 1 1 0 -0 -0 -0 -0 -0 -0 -0 -0 0 0 0 1 1 1 1 1 0 0 0 0 0 0 0 0 0 0 0 0 -0 -0 -0 -0 -0 -0 -0 -0 -1 -1 -1 -1 -1 -1 -1 -1 -1 -1 -1 -1 -1 -1 -1 -1 -1 -1 -1 -1 -1 -1 -1 -1 -0 -0 -0 -0 0 0
2 3 3 3 2 2 1 1 1 2 1 1 1 1 1 1 1 0 0 -0 -0 -0 -0 -0 -0 -1 -1 -1 -0 -0 0 0 0 0 1 0 0 0 0 0 0 0 -0 -0 -0 -0 -0 -0 -0 -0 -0 -0 -0 -1 -1 -1 -1 -1 -1 -1 -1 -1 -1 -1 -1 -1 -1 -1 -1 -1 -1 -1 -1 -1 -1 -1 -1 -1 -1 -1 -1 -1 -0 -0 -0 -0
3 3 3 3 3 2 1 1 1 1 1 1 1 1 1 1 1 1 0 -0 -0 -1 -1 -0 -0 -1 -1 -1 -0 -0 -0 0 0 0 0 0 0 0 -0 -0 -0 -0 -0 -0 -0 -0 -0 -0 -0 -0 -0 -0 -1 -1 -1 -1 -1 -1 -1 -2 -2 -2 -1 -1 -1 -1 -1 -1 -1 -1 -1 -1 -1 -1 -1 -1 -1 -1 -1 -1 -1 -1 -1 -1 -0 -0
3 3 3 3 3 2 1 1 1 1 1 1 0 0 0 1 1 1 0 0 -0 -0 -1 -1 -1 -0 0 0 0 0 0 0 0 0 0 0 -0 -0 -0 -0 -0 -0 -0 -0 -0 -0 -0 -0 -0 -0 -1 -1 -1 -1 -1 -1 -2 -2 -2 -2 -2 -2 -2 -2 -1 -1 -1 -1 -1 -1 -1 -1 -1 -1 -1 -1 -1 -1 -1 -1 -1 -1 -1 -1 -1 -1
3 3 3 3 3 2 1 1 1 1 1 1 1 0 0 0 0 0 -0 -0 -0 -0 -0 -1 -1 -0 1 1 1 1 0 0 -0 -0 -0 -0 -0 -0 -0 -0 -1 -1 -1 -0 -0 -0 -0 -1 -1 -1 -1 -1 -1 -1 -1 -2 -2 -2 -2 -2 -2 -2 -2 -1 -1 -1 -1 -1 -1 -1 -1 -1 -1 -1 -1 -1 -1 -1 -1 -1 -1 -1 -1 -1 -1 -1
3 3 3 3 3 2 2 1 2 2 1 1 1 0 0 -0 -0 -0 -0 -0 -0 -0 -0 -1 -0 0 1 1 1 1 0 0 -0 -0 -0 -0 -1 -1 -1 -1 -1 -1 -1 -1 -1 -1 -1 -1 -1 -1 -1 -1 -1 -1 -1 -2 -2 -2 -2 -2 -2 -2 -2 -1 -1 -1 -1 -1 -1 -2 -2 -2 -2 -2 -1 -1 -1 -1 -1 -1 -1 -1 -1 -1 -1 -1
3 3 3 3 3 3 3 2 2 2 2 1 1 0 0 -0 -0 -0 -0 -0 -0 -0 -0 -0 0 1 1 1 1 1 0 0 -0 -0 -0 -1 -1 -1 -1 -1 -1 -1 -1 -1 -1 -1 -1 -1 -1 -1 -1 -1 -1 -1 -1 -1 -2 -2 -2 -2 -2 -2 -2 -2 -1 -1 -1 -2 -2 -2 -2 -2 -2 -2 -2 -2 -2 -2 -2 -1 -2 -2 -2 -1 -1 -1
3 3 3 3 3 3 3 3 3 2 2 1 1 1 1 1 1 1 1 1 0 0 0 0 0 0 0 0 0 0 -0 -0 -0 -0 -0 -1 -1 -1 -1 -1 -1 -1 -1 -1 -1 -1 -1 -1 -1 -1 -1 -1 -1 -1 -1 -1 -1 -2 -2 -2 -2 -2 -2 -2 -2 -2 -2 -2 -2 -2 -2 -2 -2 -2 -2 -2 -2 -2 -2 -2 -2 -2 -2 -2 -2 -1
3 3 3 3 3 3 3 2 2 2 2 1 1 2 2 2 2 2 2 1 1 1 1 0 -0 -0 -0 -0 -0 -0 -1 -1 -1 -1 -1 -1 -0 -0 -1 -1 -1 -1 -1 -1 -1 -1 -1 -1 -1 -1 -1 -1 -1 -1 -1 -1 -1 -2 -2 -2 -2 -2 -2 -2 -2 -2 -2 -2 -2 -2 -2 -2 -2 -2 -2 -2 -2 -2 -2 -2 -2 -2 -2 -2 -2 -2
3 3 3 3 3 2 2 2 2 2 2 2 1 2 2 2 2 2 2 1 1 1 0 -0 -1 -1 -1 -1 -1 -1 -1 -1 -1 -1 -1 -1 -1 -1 -1 -1 -1 -1 -2 -1 -1 -1 -1 -1 -2 -1 -1 -1 -1 -1 -1 -1 -1 -2 -2 -2 -2 -2 -2 -2 -2 -2 -2 -2 -2 -2 -2 -2 -2 -3 -3 -3 -3 -3 -3 -2 -2 -2 -2 -2 -2 -2
3 3 3 2 2 2 2 2 2 2 2 2 2 1 1 1 1 1 0 0 -0 -0 -0 -1 -2 -2 -2 -2 -2 -2 -1 -1 -1 -1 -1 -1 -1 -1 -1 -1 -1 -2 -2 -2 -2 -2 -2 -2 -2 -2 -1 -1 -1 -1 -1 -1 -1 -2 -2 -2 -2 -2 -2 -2 -2 -2 -2 -2 -2 -2 -2 -2 -2 -3 -3 -3 -3 -3 -3 -3 -3 -2 -2 -2 -2 -2
3 2 2 2 2 2 2 2 2 2 2 2 1 1 1 1 1 -0 -1 -1 -0 -0 -1 -1 -2 -2 -2 -2 -2 -2 -2 -2 -1 -1 -1 -1 -1 -1 -1 -1 -2 -2 -2 -2 -2 -2 -2 -2 -2 -2 -1 -1 -1 -1 -1 -2 -2 -2 -2 -2 -2 -2 -2 -2 -2 -2 -2 -2 -2 -2 -2 -2 -2 -3 -3 -3 -3 -3 -3 -3 -3 -3 -2 -2 -2 -2
2 2 2 2 2 2 2 2 2 1 1 1 1 1 1 1 0 -0 -1 -0 -0 -0 -1 -1 -2 -2 -2 -2 -2 -2 -2 -2 -1 -1 -1 -2 -1 -1 -1 -2 -2 -2 -2 -2 -2 -2 -2 -2 -2 -2 -1 -1 -1 -1 -1 -2 -2 -2 -2 -2 -2 -2 -2 -2 -2 -2 -2 -2 -2 -2 -2 -2 -2 -3 -3 -3 -3 -3 -3 -3 -3 -3 -3 -3 -2 -2
2 1 1 2 2 2 1 1 1 1 1 1 1 1 1 1 1 1 0 0 0 -0 -1 -1 -1 -1 -2 -2 -2 -2 -2 -2 -2 -2 -2 -2 -2 -2 -2 -2 -2 -2 -2 -2 -2 -2 -2 -2 -2 -2 -2 -2 -2 -2 -2 -2 -2 -2 -2 -2 -2 -3 -3 -2 -2 -2 -2 -2 -2 -2 -3 -3 -3 -3 -3 -3 -3 -3 -3 -3 -3 -3 -3 -2 -2 -2
1 1 1 1 1 1 1 1 0 0 0 0 0 0 0 0 1 1 1 1 0 -0 -1 -1 -1 -1 -2 -2 -3 -3 -2 -2 -2 -2 -2 -2 -2 -2 -2 -2 -2 -2 -2 -2 -2 -2 -3 -3 -2 -2 -2 -2 -2 -2 -2 -2 -2 -2 -2 -3 -3 -3 -3 -2 -2 -2 -2 -2 -2 -2 -3 -3 -3 -3 -3 -3 -3 -3 -3 -3 -3 -3 -3 -2 -2 -2
1 1 1 0 0 0 0 -0 -0 -1 -0 -0 -0 -0 -0 -0 0 0 0 0 0 -0 -0 -1 -1 -1 -1 -2 -2 -2 -2 -2 -2 -2 -2 -2 -2 -2 -2 -2 -2 -2 -2 -2 -2 -2 -3 -3 -3 -3 -3 -3 -3 -3 -3 -3 -3 -3 -3 -3 -3 -3 -2 -2 -2 -2 -2 -2 -2 -2 -2 -3 -3 -3 -3 -3 -3 -3 -3 -3 -3 -3 -3 -3 -2 -2
0 0 0 0 0 0 -0 -0 -1 -1 -1 -0 -0 -0 -0 -0 -0 -0 -0 -0 -0 -0 -0 -1 -1 -1 -1 -1 -1 -2 -2 -2 -2 -2 -2 -2 -2 -2 -2 -2 -2 -2 -2 -2 -1 -1 -2 -3 -3 -3 -3 -3 -3 -3 -3 -3 -3 -3 -3 -3 -3 -3 -2 -2 -2 -2 -2 -2 -2 -2 -2 -2 -2 -2 -3 -3 -3 -3 -3 -3 -3 -3 -3 -3 -3 -3
-0 -0 -0 -0 -0 -0 -0 -1 -1 -1 -1 -1 -1 -1 -1 -1 -1 -1 -1 -1 -1 -1 -1 -1 -1 -1 -1 -1 -1 -1 -2 -2 -2 -2 -2 -3 -3 -3 -3 -3 -3 -3 -3 -2 -2 -2 -2 -2 -3 -3 -3 -3 -3 -3 -3 -3 -3 -3 -3 -3 -3 -3 -3 -3 -3 -3 -3 -3 -3 -3 -3 -3 -2 -2 -2 -2 -2 -2 -2 -2 -3 -3 -3 -3 -3 -3
-1 -1 -1 -1 -1 -1 -1 -1 -1 -1 -1 -1 -1 -1 -1 -1 -1 -1 -1 -1 -1 -1 -1 -1 -1 -1 -1 -2 -2 -2 -2 -2 -2 -2 -2 -3 -3 -3 -3 -3 -3 -3 -3 -3 -3 -2 -2 -3 -3 -3 -3 -3 -3 -3 -3 -3 -3 -3 -3 -3 -3 -3 -3 -3 -3 -3 -3 -3 -3 -3 -3 -3 -3 -3 -2 -2 -2 -2 -2 -2 -2 -3 -3 -3 -3 -3
-1 -1 -1 -1 -1 -1 -1 -1 -1 -1 -1 -1 -2 -2 -2 -2 -2 -2 -2 -2 -2 -2 -2 -2 -2 -1 -1 -1 -2 -2 -2 -2 -2 -3 -3 -3 -3 -3 -3 -3 -3 -3 -3 -3 -3 -3 -3 -3 -3 -3 -3 -3 -3 -3 -3 -3 -3 -3 -3 -3 -3 -3 -3 -3 -3 -3 -3 -3 -3 -3 -3 -3 -3 -2 -2 -2 -2 -2 -2 -2 -2 -3 -3 -3 -3 -3
-2 -2 -2 -2 -2 -2 -2 -2 -2 -2 -2 -2 -2 -2 -2 -2 -2 -2 -2 -2 -2 -2 -2 -2 -2 -2 -2 -2 -2 -2 -2 -2 -2 -3 -3 -3 -3 -3 -3 -3 -3 -3 -3 -3 -3 -3 -3 -3 -3 -3 -3 -3 -3 -3 -3 -3 -3 -3 -3 -3 -3 -3 -3 -3 -3 -3 -3 -3 -3 -3 -3 -3 -3 -2 -2 -2 -2 -2 -2 -2 -2 -3 -3 -3 -3 -3
-2 -2 -2 -2 -2 -2 -2 -2 -2 -3 -3 -3 -3 -3 -2 -2 -2 -2 -2 -2 -2 -2 -2 -2 -2 -2 -2 -2 -2 -2 -2 -2 -3 -3 -3 -3 -3 -3 -3 -3 -3 -3 -3 -3 -3 -3 -3 -4 -4 -4 -4 -3 -3 -3 -3 -3 -3 -3 -3 -3 -3 -3 -3 -3 -3 -3 -3 -3 -3 -3 -3 -3 -3 -2 -2 -2 -2 -2 -2 -2 -2 -2 -3 -3 -3 -4
-2 -2 -2 -2 -2 -2 -2 -2 -2 -2 -3 -3 -3 -3 -3 -3 -3 -3 -3 -3 -3 -3 -3 -3 -3 -3 -3 -3 -3 -3 -3 -3 -3 -3 -3 -3 -3 -3 -3 -3 -3 -3 -3 -3 -4 -4 -4 -4 -4 -4 -4 -4 -4 -3 -3 -3 -3 -4 -4 -4 -4 -4 -4 -4 -4 -4 -4 -4 -4 -3 -3 -3 -3 -3 -3 -2 -2 -2 -2 -2 -2 -3 -3 -3 -3 -3
-2 -2 -2 -2 -2 -2 -2 -2 -2 -2 -3 -3 -3 -3 -3 -3 -3 -3 -3 -3 -3 -3 -3 -3 -3 -3 -3 -3 -3 -3 -3 -3 -3 -3 -3 -3 -3 -3 -3 -3 -3 -4 -4 -4 -4 -4 -4 -4 -4 -4 -4 -4 -4 -4 -4 -4 -4 -4 -4 -4 -4 -4 -4 -4 -4 -4 -4 -4 -4 -3 -3 -3 -3 -3 -3 -3 -3 -3 -3 -3 -3 -3 -3 -3 -3 -3
-2 -2 -2 -2 -2 -2 -3 -2 -2 -2 -3 -3 -3 -3 -3 -3 -3 -3 -3 -3 -3 -3 -3 -3 -3 -3 -3 -3 -3 -3 -3 -3 -3 -4 -4 -4 -4 -4 -4 -4 -4 -4 -4 -4 -4 -4 -4 -4 -4 -4 -4 -4 -4 -4 -4 -4 -4 -4 -4 -4 -4 -4 -3 -4 -4 -4 -4 -4 -4 -3 -3 -3 -3 -3 -3 -3 -3 -3 -3 -3 -3 -3 -3 -3 -3 -3
-2 -2 -2 -2 -3 -3 -3 -3 -3 -3 -3 -3 -3 -3 -3 -3 -3 -3 -3 -3 -3 -3 -3 -3 -4 -4 -4 -4 -4 -4 -4 -4 -4 -4 -4 -4 -4 -4 -4 -4 -4 -4 -4 -4 -5 -5 -5 -5 -5 -5 -5 -5 -5 -5 -5 -4 -4 -4 -5 -5 -5 -4 -3 -3 -4 -4 -4 -4 -4 -4 -3 -4 -4 -4 -4 -4 -4 -4 -4 -4 -3 -3 -3 -3 -4 -4
-2 -2 -3 -3 -3 -3 -3 -3 -3 -3 -3 -3 -3 -3 -3 -3 -3 -3 -3 -3 -3 -3 -4 -4 -4 -4 -4 -4 -4 -4 -4 -4 -4 -4 -4 -4 -4 -4 -4 -4 -4 -4 -4 -5 -5 -5 -5 -5 -5 -5 -5 -5 -5 -5 -5 -5 -5 -5 -5 -5 -5 -5 -4 -4 -4 -4 -4 -4 -4 -4 -4 -4 -4 -5 -5 -5 -5 -4 -4 -4 -4 -4 -4 -4 -4 -4
-2 -3 -3 -3 -3 -3 -3 -3 -3 -3 -3 -3 -3 -3 -3 -3 -3 -3 -3 -3 -3 -3 -4 -4 -4 -4 -4 -4 -4 -4 -4 -4 -4 -4 -4 -4 -4 -4 -4 -4 -4 -5 -5 -5 -5 -5 -5 -5 -5 -5 -5 -5 -6 -6 -6 -6 -5 -5 -5 -5 -5 -5 -5 -4 -4 -4 -4 -5 -5 -5 -5 -5 -5 -5 -5 -5 -5 -5 -4 -4 -4 -4 -4 -4 -4 -4
-2 -3 -3 -3 -3 -3 -3 -3 -3 -3 -3 -3 -3 -3 -3 -3 -3 -3 -3 -3 -3 -3 -4 -4 -4 -4 -4 -4 -4 -4 -4 -4 -4 -4 -4 -4 -4 -4 -4 -4 -5 -5 -5 -5 -5 -5 -5 -5 -5 -5 -5 -5 -6 -6 -6 -6 -6 -5 -5 -4 -5 -6 -6 -5 -5 -4 -5 -5 -5 -5 -6 -6 -6 -6 -6 -5 -5 -5 -5 -5 -4 -4 -4 -4 -4 -4
-3 -3 -3 -3 -3 -3 -3 -3 -3 -3 -3 -3 -3 -3 -4 -4 -4 -4 -4 -3 -4 -4 -4 -4 -4 -4 -4 -4 -4 -4 -4 -4 -4 -4 -4 -4 -4 -4 -4 -4 -4 -5 -5 -5 -5 -5 -5 -5 -5 -5 -5 -5 -6 -6 -6 -6 -6 -6 -5 -5 -5 -5 -5 -5 -5 -5 -5 -5 -5 -5 -6 -6 -6 -6 -6 -5 -5 -5 -5 -5 -5 -4 -4 -4 -4 -4
-3 -3 -3 -3 -3 -3 -3 -3 -3 -3 -3 -4 -4 -4 -4 -4 -4 -4 -4 -4 -4 -4 -4 -4 -4 -4 -4 -4 -4 -4 -4 -4 -4 -4 -4 -4 -4 -4 -4 -4 -4 -5 -5 -5 -5 -5 -5 -5 -5 -5 -5 -6 -6 -6 -6 -6 -6 -6 -6 -5 -5 -5 -5 -5 -5 -4 -5 -5 -5 -5 -6 -6 -6 -6 -6 -6 -5 -5 -5 -5 -5 -5 -4 -4 -4 -4
-3 -3 -3 -3 -3 -3 -3 -3 -3 -3 -3 -4 -4 -4 -4 -4 -4 -4 -4 -4 -4 -4 -4 -4 -4 -4 -4 -4 -4 -4 -4 -4 -4 -4 -4 -4 -4 -4 -4 -5 -5 -5 -5 -5 -5 -5 -5 -5 -5 -5 -6 -6 -6 -6 -6 -6 -6 -6 -6 -6 -6 -6 -6 -5 -5 -4 -5 -5 -5 -6 -6 -6 -6 -6 -6 -6 -6 -6 -5 -5 -5 -5 -4 -4 -4 -4
-3 -3 -3 -3 -3 -3 -3 -3 -3 -3 -3 -3 -3 -4 -4 -4 -4 -4 -4 -4 -4 -4 -4 -4 -4 -4 -4 -4 -4 -4 -4 -4 -4 -4 -4 -4 -5 -5 -5 -5 -5 -5 -5 -5 -5 -5 -5 -6 -6 -6 -6 -6 -6 -6 -6 -6 -6 -6 -6 -6 -6 -6 -6 -6 -5 -5 -5 -5 -6 -6 -6 -6 -6 -7 -7 -7 -6 -6 -5 -5 -5 -5 -5 -4 -4 -4
-2 -3 -3 -3 -3 -3 -3 -3 -3 -3 -3 -3 -3 -3 -4 -4 -4 -4 -4 -4 -4 -4 -4 -4 -4 -4 -4 -4 -4 -4 -4 -4 -4 -5 -5 -5 -5 -5 -5 -5 -5 -5 -5 -6 -6 -6 -6 -6 -6 -6 -5 -5 -6 -6 -6 -6 -6 -6 -6 -6 -6 -6 -6 -6 -5 -5 -5 -5 -6 -6 -7 -7 -7 -7 -7 -7 -7 -6 -5 -5 -5 -5 -5 -5 -5 -4
-2 -2 -2 -3 -3 -3 -3 -3 -3 -3 -3 -3 -3 -3 -3 -4 -4 -4 -4 -4 -4 -4 -4 -4 -4 -4 -4 -4 -4 -4 -4 -5 -5 -5 -5 -5 -5 -5 -5 -5 -5 -5 -6 -6 -6 -6 -6 -6 -6 -5 -5 -5 -5 -5 -6 -6 -6 -6 -6 -6 -6 -6 -6 -6 -6 -6 -5 -6 -6 -6 -7 -7 -7 -7 -7 -7 -7 -7 -6 -5 -4 -4 -5 -5 -5 -4
-2 -2 -2 -2 -2 -2 -2 -2 -3 -3 -3 -3 -3 -3 -3 -3 -4 -4 -4 -4 -4 -4 -4 -4 -4 -4 -4 -4 -4 -4 -4 -4 -4 -4 -4 -5 -5 -5 -5 -5 -5 -6 -6 -6 -6 -6 -6 -6 -5 -4 -4 -4 -4 -4 -5 -6 -6 -6 -6 -6 -6 -6 -6 -6 -6 -6 -6 -6 -6 -6 -7 -7 -7 -7 -7 -7 -7 -7 -7 -6 -4 -4 -4 -5 -5 -5
Height
799 800 801 801 803 804 806 806 807 808 809 810 811 812 813 814 815 816 816 817 817 817 818 818 819 819 820 820 820 821 821 822 823 824 824 825 826 826 826 826 826 826 826 826 826 826 827 827 827 827 827 827 828 828 828 828 829 829 829 830 830 831 831 831 831 831 831 831 831 831 831 831 831 831 831 831 831 831 831 831 832 833 834 834 834 834
799 800 801 801 802 804 805 806 806 807 808 809 810 811 812 813 814 815 816 816 816 817 817 818 818 818 819 819 820 821 821 822 822 823 824 825 825 826 826 826 826 826 826 826 826 826 827 827 827 827 827 827 827 827 828 828 828 828 829 829 829 830 830 830 830 830 830 830 830 830 830 830 830 831 831 830 830 830 831 831 832 833 833 833 834 834
798 799 800 801 802 803 804 804 805 806 807 808 809 811 811 813 814 815 815 816 816 816 817 817 818 818 818 819 819 820 821 821 822 823 823 824 825 825 826 826 826 826 826 826 826 826 827 827 827 827 827 827 827 827 827 828 828 828 828 829 829 829 829 829 829 829 829 829 829 829 829 830 830 830 830 830 830 830 831 831 832 832 832 833 833 833
797 798 799 800 801 802 803 803 804 805 806 808 809 810 811 812 813 814 815 815 816 816 816 817 817 817 818 818 819 820 820 821 822 822 823 824 824 825 825 825 826 826 826 826 826 826 826 826 827 827 827 827 827 827 827 827 827 828 828 828 828 828 828 828 829 829 829 829 829 829 829 829 829 829 829 829 829 830 830 831 831 831 832 832 832 833
796 797 798 799 800 801 802 802 803 805 806 807 809 810 810 811 812 813 814 815 815 815 816 816 816 817 817 818 819 819 820 821 821 822 823 823 824 824 825 825 825 825 826 826 826 826 826 826 826 826 826 826 826 826 827 827 827 827 827 828 828 828 828 828 828 828 828 828 828 828 828 828 828 828 828 828 829 829 830 830 831 831 831 832 832 832
796 797 798 799 800 800 801 802 803 804 805 807 808 809 810 810 811 812 813 814 815 815 815 816 816 816 817 818 818 819 820 821 821 822 822 823 824 824 825 825 825 825 825 826 826 826 826 826 826 826 826 826 826 826 826 827 827 827 827 827 827 827 827 827 827 827 827 827 827 827 827 827 827 827 827 828 828 829 829 830 830 831 831 831 831 832
796 796 797 798 799 799 800 801 802 803 804 806 807 808 809 810 811 811 812 813 814 814 815 815 816 816 816 817 818 819 819 820 821 821 822 823 823 824 824 825 825 825 825 825 825 826 826 826 826 826 826 826 826 826 826 826 826 826 826 826 826 826 826 826 826 826 826 826 826 826 826 826 826 826 827 827 827 828 829 829 830 830 831 831 831 831
795 796 797 797 798 799 800 801 802 803 804 805 806 807 808 809 810 811 812 813 813 814 814 815 815 816 816 817 817 818 819 820 820 821 822 823 823 824 824 824 825 825 825 825 825 825 825 826 826 826 826 826 826 826 826 826 826 826 826 826 826 826 826 826 826 826 826 826 826 826 826 826 826 826 826 826 827 827 828 828 829 830 830 831 831 831
793 795 796 796 797 798 799 801 801 802 803 804 805 806 806 807 809 810 811 812 813 813 814 814 815 815 816 816 817 818 819 819 820 821 821 822 823 823 824 824 824 824 824 824 825 825 825 825 825 825 825 825 825 826 826 826 826 826 826 826 826 825 825 825 825 825 825 825 825 825 825 825 825 825 826 826 826 826 827 828 828 829 829 830 830 831
792 793 795 796 796 797 798 799 800 801 802 803 804 805 805 806 808 809 811 811 812 813 813 814 814 815 815 816 817 818 818 819 820 820 821 821 822 822 822 823 823 823 824 824 824 825 825 825 825 825 825 825 825 825 825 825 825 825 825 825 825 825 825 825 825 825 825 825 825 825 825 825 825 825 825 825 826 826 826 827 827 828 829 829 830 830
792 793 794 795 796 796 797 798 799 800 802 803 804 804 805 805 806 808 809 811 811 812 813 813 814 814 815 816 816 817 818 818 819 820 821 821 821 822 822 822 822 823 823 824 824 824 824 824 824 824 824 824 824 824 825 825 825 825 825 824 824 824 824 824 824 824 824 825 825 825 825 825 825 825 825 825 825 826 826 826 827 827 828 828 829 829
791 793 793 794 795 796 796 797 798 800 801 802 804 805 805 805 805 806 808 809 810 811 812 812 813 814 814 815 816 817 818 818 819 820 820 821 821 822 822 822 822 822 823 823 823 824 824 824 824 824 824 824 824 824 824 824 824 824 824 824 824 824 824 824 824 824 824 824 824 824 825 825 825 825 825 825 825 826 826 826 826 827 827 828 828 829
790 791 793 794 794 795 796 797 798 800 801 801 802 802 803 803 804 805 807 808 809 810 811 811 812 813 814 815 816 816 817 818 819 819 820 821 821 821 822 822 822 822 822 823 823 823 823 823 823 823 823 823 824 824 823 823 823 823 823 823 823 823 823 824 824 824 824 824 824 824 824 824 825 825 825 825 825 826 826 826 826 826 827 827 828 828
790 791 792 793 794 794 795 796 797 798 799 799 799 800 800 801 803 805 806 807 808 809 810 811 812 813 814 815 816 816 817 817 818 819 820 820 821 821 821 821 821 822 822 822 822 822 822 822 822 822 823 823 823 823 823 823 823 823 823 823 823 823 823 823 823 823 823 824 824 824 824 824 825 825 825 825 825 826 826 826 826 826 826 827 827 828
789 790 791 792 793 793 794 794 795 796 796 797 797 798 799 801 802 804 806 807 808 809 810 811 812 813 814 814 815 816 816 817 817 818 819 820 820 820 820 821 821 821 821 821 821 821 822 822 822 822 822 822 822 822 822 822 822 822 822 823 823 823 823 823 823 823 823 823 823 824 824 824 824 825 825 825 825 825 826 826 826 826 826 826 827 827
788 789 790 790 791 791 792 793 794 794 795 796 796 797 799 801 802 803 805 806 807 808 810 811 812 813 813 814 814 815 816 816 817 817 818 819 819 819 820 820 820 820 821 821 821 821 821 821 821 821 821 821 821 822 822 822 822 822 822 822 822 823 823 823 823 823 823 823 823 823 824 824 824 824 825 825 825 825 825 825 826 826 826 826 826 827
787 787 788 789 789 790 791 791 792 793 794 795 796 797 798 799 801 802 803 804 806 807 808 809 811 812 813 813 814 814 815 815 816 817 817 818 818 818 819 819 819 820 820 820 820 820 820 820 820 821 821 821 821 821 821 821 821 822 822 822 822 822 822 822 822 822 823 823 823 823 823 824 824 824 824 825 825 825 825 825 825 825 826 826 826 826
786 786 786 787 788 788 789 790 791 792 792 794 795 796 797 799 800 801 802 803 804 806 807 808 808 809 810 811 812 812 813 814 815 816 816 817 817 817 818 818 818 819 819 819 819 819 819 820 820 820 820 820 821 821 821 821 821 821 822 822 822 822 822 822 822 822 822 822 823 823 823 823 824 824 824 824 824 825 825 825 825 825 825 825 826 826
784 785 786 786 786 787 788 789 790 791 791 793 794 796 797 798 799 800 801 802 803 804 805 806 807 807 808 809 810 811 812 813 814 815 816 816 816 817 817 817 818 818 818 818 818 818 819 819 819 819 820 820 820 820 820 821 821 821 821 821 821 822 822 822 822 822 822 822 822 823 823 823 823 824 824 824 824 824 825 825 825 825 825 825 825 826
783 784 784 785 786 786 787 788 788 789 790 791 793 795 796 797 799 800 801 801 802 803 804 805 806 807 808 808 809 810 811 812 813 814 815 815 816 816 816 816 817 817 817 817 817 818 818 818 818 819 819 819 819 820 820 820 821 821 821 821 821 821 821 821 821 821 822 822 822 822 823 823 823 823 824 824 824 824 824 824 825 825 825 825 825 825
783 783 783 784 785 786 786 787 787 788 789 791 792 794 795 796 798 799 800 801 802 803 804 805 806 806 807 808 808 809 811 811 812 813 814 814 815 815 815 816 816 816 816 816 817 817 817 818 818 818 818 819 819 819 820 820 820 820 821 821 821 821 821 821 821 821 821 822 822 822 822 823 823 823 823 823 824 824 824 824 824 824 825 825 825 825
782 782 783 783 784 785 785 786 786 787 789 790 791 793 794 795 796 797 798 800 801 802 803 805 806 806 807 807 808 809 810 811 812 812 813 814 814 814 814 815 815 815 816 816 816 816 817 817 817 818 818 818 818 819 819 819 820 820 820 821 821 821 821 821 821 821 821 821 822 822 822 822 823 823 823 823 823 823 823 824 824 824 824 824 825 825
781 782 782 783 784 784 785 785 786 787 788 789 791 791 792 794 795 796 797 798 800 801 802 804 805 806 806 807 808 809 810 810 811 812 812 813 813 813 813 814 814 815 815 815 816 816 816 817 817 817 817 818 818 818 818 819 819 819 820 820 820 820 821 821 821 821 821 821 822 822 822 822 822 822 823 823 823 823 823 823 823 824 824 824 824 824
781 781 782 782 783 784 784 785 786 786 787 789 790 791 792 793 794 796 796 798 799 801 802 803 805 806 806 807 808 808 809 810 811 811 811 812 812 812 813 813 813 814 814 815 815 816 816 816 816 817 817 817 817 818 818 818 818 819 819 820 820 820 820 821 821 821 821 821 821 822 822 822 822 822 822 822 822 823 823 823 823 823 823 824 824 824
781 781 781 782 783 783 784 785 785 786 787 788 790 791 792 794 795 796 797 798 800 801 802 803 804 805 806 806 807 808 808 809 810 810 811 811 811 811 812 812 813 813 814 814 815 815 816 816 816 816 816 817 817 817 817 817 818 818 819 820 820 820 820 821 821 821 821 821 821 821 822 822 822 822 822 822 822 822 822 822 823 823 823 823 823 823
781 781 781 782 783 783 784 784 785 786 787 788 790 791 792 793 795 796 797 798 799 800 801 803 804 804 805 806 806 807 808 808 809 809 810 810 811 811 812 812 813 813 813 814 815 815 815 816 816 816 816 816 816 816 817 817 817 818 819 819 820 820 820 820 821 821 821 821 821 821 821 822 822 822 822 822 822 822 822 822 822 822 822 823 823 823
781 781 781 782 783 783 784 785 785 786 787 789 790 791 792 793 794 795 796 797 798 799 801 802 803 804 805 805 806 806 807 807 808 809 809 810 810 811 811 812 812 813 813 814 814 815 815 815 815 815 815 816 816 816 816 816 817 818 818 819 819 819 820 820 820 821 821 821 821 821 821 821 821 822 822 822 822 822 822 822 822 822 822 822 822 822
781 781 782 782 783 784 784 785 786 787 788 789 790 791 792 793 794 794 795 796 797 799 800 801 802 803 804 805 805 806 806 807 807 808 808 809 810 810 811 811 812 812 813 813 814 814 814 814 814 815 815 815 815 816 816 816 816 817 818 819 819 819 819 820 820 820 820 821 821 821 821 821 821 821 821 821 821 821 821 822 822 822 822 822 822 822
781 782 782 783 784 784 785 786 786 787 788 789 790 791 792 793 793 794 794 796 797 798 799 800 801 802 803 804 804 805 806 806 806 807 808 808 809 809 810 811 811 812 812 813 813 814 814 814 814 814 814 814 815 815 816 816 816 817 818 818 818 819 819 819 819 820 820 820 820 821 821 821 821 821 821 821 821 821 821 821 821 821 821 821 821 821
781 782 782 783 784 785 785 786 787 788 789 790 791 791 792 793 794 794 795 796 796 797 798 799 800 801 802 803 804 805 805 805 806 806 807 808 808 809 810 810 811 811 812 812 813 813 813 813 813 813 814 814 814 815 815 816 816 816 817 817 818 818 818 819 819 819 819 820 820 820 820 820 820 820 820 820 820 821 821 821 821 821 820 820 820 820
781 782 783 783 784 785 786 786 787 788 789 790 790 791 792 793 794 794 795 796 796 797 797 798 799 800 801 802 803 804 804 804 805 806 806 807 807 808 809 809 810 811 811 811 811 812 812 813 813 813 813 814 814 815 815 816 816 816 816 817 817 817 818 818 818 819 819 819 819 819 819 819 819 819 819 819 819 820 820 820 820 820 820 820 820 820
782 782 783 784 784 785 786 786 787 788 789 790 790 791 792 793 793 794 795 796 796 797 797 798 799 800 800 801 801 802 802 803 804 805 805 806 807 808 808 809 809 810 810 811 810 811 811 812 812 813 813 813 814 814 815 815 816 816 816 816 817 817 817 818 818 818 818 818 818 818 818 818 818 818 818 818 818 819 819 819 819 819 819 819 819 819
782 783 784 784 785 786 786 787 787 788 789 790 791 791 792 793 793 794 795 796 796 797 797 798 798 799 800 800 801 801 801 802 803 804 805 806 806 807 807 808 808 809 810 810 810 810 810 811 811 812 813 813 813 814 814 815 815 816 816 816 816 817 817 817 817 817 817 817 817 817 817 817 817 817 817 818 818 818 818 818 818 818 818 818 818 818
783 784 784 785 786 786 787 787 788 789 790 790 791 791 792 793 793 794 795 795 796 796 797 797 798 798 799 800 800 801 801 801 802 803 804 805 806 806 807 807 808 808 809 809 810 810 810 810 811 811 812 813 813 814 814 814 815 815 816 816 816 816 816 816 816 817 817 816 816 816 816 816 816 816 816 817 817 817 817 817 817 817 817 817 817 817
783 784 785 785 786 786 787 788 788 789 790 790 791 791 792 793 793 794 794 795 796 796 796 797 798 798 799 799 799 800 801 801 802 803 803 804 805 806 806 807 807 808 808 808 809 809 810 810 811 811 811 812 813 813 813 814 814 815 815 815 815 816 816 816 816 816 816 816 816 816 816 816 815 815 816 816 816 816 816 816 816 816 816 816 816 816
783 784 785 785 786 786 787 788 788 789 790 790 791 791 792 792 793 794 794 795 795 796 796 797 797 798 798 799 799 799 800 801 801 802 803 804 804 805 806 806 806 807 807 808 808 809 809 810 810 811 811 812 812 812 813 813 813 814 814 814 815 815 815 815 815 815 815 815 815 815 814 814 814 814 814 814 814 814 814 814 814 815 815 815 816 816
783 784 785 785 786 786 787 787 788 789 789 790 791 791 791 792 793 793 794 794 795 795 796 796 797 797 798 798 799 799 800 801 801 802 803 803 804 804 805 805 806 806 807 807 807 808 809 809 810 810 811 811 811 812 812 812 813 813 813 814 814 814 814 814 814 814 814 814 813 813 813 813 813 813 813 813 813 813 813 813 813 813 813 814 814 814
783 784 784 785 785 786 786 787 788 788 789 790 790 791 791 792 792 793 793 794 794 795 796 796 796 797 798 798 799 799 800 800 801 801 802 803 803 804 804 805 805 806 806 806 807 807 808 808 809 810 810 810 811 811 811 811 812 812 813 813 813 813 813 813 813 813 812 812 812 812 812 812 811 811 811 811 811 811 812 812 812 812 812 812 813 813
783 783 784 785 785 786 786 786 787 788 788 789 790 790 791 791 792 792 793 793 794 795 795 796 796 797 797 798 798 799 799 800 801 801 801 802 802 803 804 804 804 805 805 806 806 806 807 808 808 809 809 810 810 810 811 811 811 812 812 812 812 812 812 812 811 811 811 811 811 811 810 810 810 810 810 810 810 810 810 811 811 811 811 811 812 812
782 783 784 784 785 785 786 786 787 787 788 788 789 790 790 791 791 792 792 793 794 794 795 795 796 796 797 797 798 799 799 799 800 801 801 801 802 802 803 803 804 804 805 805 805 806 806 807 807 808 808 809 809 810 810 810 810 811 811 811 811 811 811 811 810 810 810 809 809 809 809 809 809 809 809 809 809 809 809 809 810 810 810 811 811 811
782 782 783 784 784 785 785 786 786 787 787 788 788 789 790 790 791 791 792 792 793 794 794 795 796 796 797 797 798 798 799 799 799 800 800 801 801 801 802 802 803 803 804 804 805 805 806 806 806 807 807 808 808 809 809 809 809 810 810 810 809 809 809 809 809 808 808 808 808 808 808 808 808 808 808 808 808 808 808 809 809 809 809 809 810 810
781 781 782 783 784 784 785 785 786 786 787 787 788 788 789 789 790 791 791 792 793 793 794 795 795 796 796 797 797 798 798 798 799 799 800 800 800 801 801 801 802 802 803 803 804 804 805 805 806 806 806 807 807 808 808 808 808 808 808 808 808 808 807 807 807 807 807 807 807 807 807 807 807 807 807 807 807 807 807 807 808 808 808 808 809 809
780 781 781 782 783 784 784 785 785 786 786 786 787 788 788 789 790 790 791 791 792 793 793 794 795 795 796 796 797 797 797 798 798 798 799 799 799 800 800 801 801 801 802 802 803 803 804 804 805 805 805 806 806 806 807 807 806 807 807 807 807 807 807 806 806 806 806 806 806 806 806 806 806 806 806 806 806 806 806 806 806 807 807 807 807 808
779 780 781 782 782 783 784 784 785 785 786 786 787 787 788 788 789 790 790 791 791 792 793 793 794 795 795 796 796 796 797 797 797 798 798 798 798 799 799 800 800 801 801 801 802 802 803 803 804 804 805 805 805 806 806 806 806 805 805 806 806 806 806 806 806 806 806 806 806 806 806 806 806 805 805 805 805 805 805 806 806 806 806 806 806 806
778 779 780 781 782 783 783 784 784 785 785 786 786 787 787 788 789 789 790 790 791 792 792 793 793 794 795 795 795 796 796 796 796 797 797 797 798 798 798 799 799 800 800 801 801 801 802 802 803 803 803 804 804 804 804 804 804 804 804 804 804 804 804 804 804 804 804 805 805 805 804 804 804 804 804 804 804 804 804 804 804 805 805 805 805 805
778 779 780 781 781 782 783 783 784 784 785 785 786 786 787 787 788 789 789 790 791 791 792 792 793 793 794 794 795 795 795 796 796 796 796 796 797 797 797 798 798 799 799 800 800 801 801 801 802 802 802 803 803 803 803 803 803 803 803 803 803 803 803 803 803 803 803 803 803 803 803 803 803 803 803 803 803 803 803 803 803 803 803 804 804 804
777 778 779 780 781 781 782 783 783 784 784 785 785 786 786 787 787 788 789 789 790 791 791 791 792 792 793 793 794 794 794 795 795 795 796 796 796 796 797 797 797 798 798 799 799 799 800 800 801 801 801 802 801 801 801 801 802 802 802 802 802 802 802 801 801 802 802 802 802 802 802 802 802 802 802 802 802 802 802 802 802 802 802 802 803 803
776 777 778 779 780 781 781 782 782 783 784 784 785 785 786 786 787 787 788 789 789 790 790 791 791 792 792 792 793 793 794 794 794 795 795 795 796 796 796 796 797 797 797 798 798 798 799 799 799 800 800 801 801 800 800 800 801 801 801 801 801 801 801 800 800 801 801 801 801 801 801 801 801 801 801 801 801 801 801 801 801 801 801 801 802 802
776 776 777 778 779 780 781 781 781 782 783 783 784 784 785 786 786 787 787 788 788 789 789 790 790 791 791 791 792 792 793 793 794 794 794 795 795 795 796 796 796 796 797 797 797 798 798 798 798 798 799 799 799 799 799 799 799 800 800 800 800 800 800 799 799 800 800 800 800 800 800 800 800 800 800 800 800 800 800 801 801 801 801 801 801 801
775 776 776 777 778 779 779 780 781 781 782 782 783 783 784 785 785 786 786 787 787 788 788 789 789 790 790 791 791 791 792 792 793 793 794 794 794 794 795 795 796 796 796 796 797 797 797 797 797 797 797 797 797 797 798 798 798 798 798 799 799 799 799 799 799 799 799 799 799 799 799 799 799 799 799 800 799 799 799 799 800 800 800 800 800 800
774 775 775 776 777 778 778 779 780 780 781 781 782 782 783 784 784 785 785 786 786 787 787 788 788 789 789 790 790 791 791 791 792 792 793 793 793 794 794 794 795 795 796 796 796 796 796 796 796 795 795 795 796 796 796 796 797 797 797 797 797 798 798 798 798 798 798 798 798 798 798 799 799 799 799 799 799 799 799 799 799 799 800 799 799 799
Wind_Speed
13 14 15 16 18 20 20 21 21 21 20 20 20 20 20 20 19 18 18 18 17 17 17 16 15 14 13 12 10 9 8 7 6 5 5 4 4 3 3 5 6 8 8 9 9 9 9 9 9 9 9 9 9 9 9 9 9 9 8 8 7 7 6 5 5 4 4 4 4 3 3 3 4 5 6 6 6 5 4 4 4 3 1 1 2 3
12 13 14 15 17 19 20 21 21 22 22 21 21 21 21 20 19 19 18 18 18 17 17 16 15 14 14 13 11 10 9 8 7 6 6 5 4 4 5 6 7 8 9 9 9 9 8 8 8 8 8 8 8 8 8 8 8 8 8 8 7 7 6 5 5 5 5 4 5 5 4 4 4 5 5 5 5 4 3 3 3 3 1 1 2 2
13 14 15 16 18 20 21 22 22 22 22 22 22 21 21 20 19 19 19 19 18 17 16 16 15 14 14 13 11 10 9 8 7 7 6 6 5 5 5 7 8 9 9 9 9 8 8 7 6 6 6 6 6 7 7 7 7 7 8 7 7 7 6 6 6 6 6 6 6 6 6 5 5 5 5 5 5 4 3 3 3 3 2 1 2 2
15 16 17 17 18 18 20 22 23 23 22 22 21 21 20 20 20 20 19 19 18 17 16 15 14 13 13 11 10 9 8 8 7 7 7 7 6 6 6 7 9 9 9 9 8 8 7 6 6 6 5 5 5 5 6 6 6 7 7 7 7 7 7 7 7 7 7 7 7 7 7 6 6 5 5 5 5 4 4 4 3 3 2 2 2 2
15 17 18 19 18 17 19 21 23 23 22 21 21 21 20 20 20 19 19 18 17 16 15 14 13 12 12 10 9 8 7 7 7 8 8 8 7 7 8 9 10 10 9 8 8 7 6 6 5 5 4 4 3 4 4 4 5 5 6 6 6 7 7 7 7 7 8 8 8 8 8 8 7 7 6 6 6 5 4 4 4 3 2 2 2 1
14 16 17 18 17 17 19 21 22 23 22 21 21 21 20 20 19 18 17 16 15 15 14 13 12 11 11 10 9 8 7 6 7 8 8 8 8 9 9 10 10 10 9 8 8 7 6 5 4 4 3 3 2 2 2 3 3 3 4 4 5 5 5 6 6 6 7 7 7 7 8 8 8 8 7 7 7 6 5 4 4 3 2 2 1 1
14 16 17 18 18 19 20 21 22 23 22 22 21 21 20 19 17 17 16 15 14 13 13 12 11 10 10 10 10 10 9 9 9 8 8 8 9 9 10 11 11 10 9 8 7 7 6 5 4 3 3 2 2 2 2 2 2 2 3 3 3 4 4 5 5 5 5 5 5 5 6 6 7 7 7 7 8 7 6 5 4 3 2 2 1 1
14 16 17 18 18 19 20 21 22 22 22 22 21 20 19 18 16 15 14 14 13 12 12 11 10 10 10 11 11 12 12 12 12 11 11 10 10 10 10 11 11 10 9 8 7 6 5 4 4 3 3 3 3 3 3 3 3 3 3 3 4 4 5 5 5 5 5 4 3 3 3 4 4 5 6 7 7 8 7 6 5 4 3 2 2 1
16 16 17 18 19 18 18 20 21 23 23 22 21 20 19 18 16 15 14 13 12 12 11 11 12 12 12 12 13 13 13 13 14 14 14 14 13 12 12 11 11 10 9 8 7 6 5 4 4 3 3 3 3 4 4 4 4 4 4 5 5 5 5 5 5 5 4 3 2 1 1 1 2 3 4 5 6 7 7 7 6 5 4 3 2 2
16 16 16 17 18 18 17 19 21 23 23 22 22 21 20 19 17 16 15 14 13 13 12 13 14 14 14 14 14 14 14 14 14 15 16 16 16 15 14 13 12 10 9 8 6 5 5 4 4 4 4 4 4 5 5 5 5 5 6 6 6 5 5 5 4 4 3 1 1 1 1 1 1 1 2 3 4 6 7 7 7 7 6 4 3 2
14 15 15 16 18 19 18 20 22 23 23 22 21 20 20 20 18 17 15 16 16 15 14 14 15 15 16 15 15 15 14 14 15 15 16 16 15 15 14 13 12 11 10 8 7 6 6 5 5 5 5 5 5 6 6 6 6 6 6 6 5 5 4 4 3 2 1 1 1 2 2 2 2 1 1 2 2 3 5 6 7 7 7 6 5 4
13 13 14 15 17 18 18 20 23 24 22 21 18 16 17 19 20 18 16 16 17 18 17 16 16 16 16 16 15 15 14 14 14 14 15 14 14 13 12 12 11 10 10 9 8 8 7 7 6 6 7 7 7 7 8 7 7 7 6 5 4 4 3 3 2 1 1 1 2 3 3 3 3 2 2 2 1 2 3 4 5 7 7 7 6 4
14 14 14 14 15 16 17 18 20 21 21 19 16 14 15 19 21 20 17 17 18 19 19 18 16 16 15 15 15 14 14 14 14 14 14 13 13 12 11 10 10 9 9 9 9 9 9 8 8 8 8 8 8 8 8 8 7 6 5 4 3 3 2 2 1 1 1 2 2 3 3 3 3 3 3 2 2 2 2 2 3 4 6 6 5 5
13 14 13 12 13 14 16 18 19 18 18 18 17 18 19 21 22 21 18 18 19 20 19 18 17 16 15 15 14 14 14 14 13 13 13 13 12 11 10 10 9 9 8 8 9 9 9 9 9 9 9 9 9 8 8 7 6 4 3 2 2 2 2 2 2 1 1 2 2 3 3 3 3 3 3 3 3 3 3 3 3 3 4 4 4 4
13 13 11 10 11 13 15 17 18 19 18 19 20 21 21 22 22 20 17 17 19 20 19 17 16 15 15 15 15 14 14 14 14 13 13 12 11 10 9 9 8 8 7 8 8 8 8 8 8 8 8 8 8 8 7 5 4 3 2 2 2 3 3 3 2 2 2 2 3 3 3 3 3 3 3 3 2 2 2 2 3 3 4 4 4 4
14 13 11 11 12 13 16 18 18 18 18 20 21 21 20 20 21 19 17 17 19 20 18 15 13 12 13 15 16 15 15 14 14 13 13 12 11 10 9 8 8 7 7 7 7 7 7 7 8 8 8 8 7 6 5 3 3 3 3 3 3 3 3 3 3 2 2 2 3 3 3 3 3 3 3 3 3 2 2 2 3 3 4 4 4 4
13 13 12 12 12 13 17 18 18 18 19 20 21 21 20 20 21 20 18 19 20 20 17 14 10 7 8 13 16 17 16 15 15 14 13 12 11 10 9 8 8 7 7 7 7 7 7 7 7 7 7 7 6 5 4 3 3 3 3 3 3 3 3 2 2 2 2 2 3 3 3 3 4 4 4 4 3 3 2 2 2 3 3 4 4 4
13 13 13 12 12 14 17 19 19 20 20 21 21 21 21 21 21 21 20 20 20 18 16 14 11 8 6 8 13 17 18 17 15 14 13 12 12 11 9 8 8 7 7 7 7 7 7 7 7 7 7 6 5 4 4 3 3 3 3 3 3 3 2 2 2 2 2 2 3 3 3 3 4 4 4 4 3 3 2 2 2 3 3 4 4 4
14 15 14 13 13 15 17 19 20 20 21 21 21 20 20 20 20 21 21 21 20 18 17 15 13 12 10 8 12 17 19 18 16 15 14 13 12 11 10 9 8 8 8 8 7 7 7 7 7 6 6 6 5 5 4 4 4 4 4 3 3 3 3 2 2 2 2 2 2 3 3 3 4 4 4 4 4 3 2 2 1 1 2 3 3 4
15 16 15 15 14 15 16 19 21 22 22 22 22 21 20 20 21 21 21 21 20 20 20 18 16 14 12 10 11 15 18 18 17 15 14 13 12 11 10 9 8 8 8 8 7 7 7 7 7 6 6 6 6 6 5 5 5 4 4 3 3 3 3 3 3 3 2 2 3 3 4 4 4 4 5 5 4 4 3 2 1 1 1 2 2 3
14 16 17 17 16 15 15 19 21 23 23 23 22 21 20 20 20 20 20 21 21 21 20 18 17 15 12 10 10 12 15 16 16 15 14 12 11 11 10 9 8 8 8 8 8 7 7 7 7 7 7 6 6 6 6 6 6 5 4 4 3 4 4 4 3 3 2 3 3 4 4 4 5 5 5 5 5 5 5 4 2 1 1 1 1 2
12 13 14 15 16 15 15 17 19 21 23 23 22 21 20 20 20 20 21 21 21 20 19 18 16 15 13 11 10 10 12 13 14 13 12 11 10 10 9 8 8 8 9 8 8 7 7 7 7 7 7 7 7 7 7 7 6 6 5 4 4 4 4 4 3 2 2 4 4 4 3 4 4 4 5 5 6 6 6 5 4 2 1 1 1 2
8 9 10 11 13 14 14 14 16 18 20 22 21 21 21 21 20 21 22 21 21 20 20 18 17 15 12 11 10 10 10 11 11 11 10 9 9 9 8 8 8 9 9 9 8 8 7 7 7 7 7 7 7 7 7 7 6 6 5 4 4 5 4 3 2 1 3 4 4 3 3 3 3 3 4 4 5 5 5 5 4 3 2 2 2 2
6 6 6 8 9 10 10 10 12 14 18 20 20 20 19 19 18 18 19 19 20 20 19 17 15 13 11 10 11 11 10 10 10 10 9 8 7 7 7 8 9 10 10 9 8 8 7 7 7 7 7 7 7 7 7 7 7 6 5 5 5 5 4 2 2 2 3 3 4 3 3 3 3 3 3 3 3 3 3 4 4 4 3 3 3 2
6 7 7 7 7 7 7 6 8 11 14 16 18 17 17 16 16 16 16 17 18 18 18 15 13 11 10 11 12 12 11 10 10 10 9 8 7 7 7 8 9 10 10 9 9 8 7 7 7 7 6 6 6 6 6 7 7 7 6 6 5 5 4 3 3 3 3 3 3 3 3 3 3 3 2 2 2 2 2 3 3 4 4 4 4 4
7 9 9 9 9 8 7 7 7 9 11 13 14 15 15 16 16 16 17 18 18 18 16 14 11 10 10 11 12 12 11 10 9 9 9 7 7 8 8 9 10 11 11 10 9 8 7 7 6 6 6 6 6 6 6 6 7 7 7 6 6 6 5 4 4 4 4 4 4 4 3 3 3 3 3 3 3 2 2 2 2 3 3 4 5 5
8 9 10 10 10 10 9 9 10 10 11 11 12 13 14 15 16 17 17 18 19 18 17 12 9 8 9 9 10 12 12 11 10 9 9 8 7 8 9 10 10 11 11 10 9 8 7 7 6 6 6 6 6 6 6 7 7 7 7 7 7 6 6 5 5 5 4 4 4 4 4 4 4 4 3 3 3 3 3 2 2 2 3 3 4 6
9 10 10 10 11 11 11 11 12 12 12 12 11 12 13 14 16 17 18 19 19 18 17 13 9 7 7 7 9 11 11 11 10 10 10 9 7 7 10 10 11 11 10 10 9 8 8 7 7 6 6 6 6 6 8 9 9 8 7 7 7 7 7 6 6 6 5 4 4 4 3 4 4 4 4 4 3 3 3 3 3 3 3 4 5 6
11 11 11 11 11 12 12 13 13 13 12 12 11 11 11 12 14 16 18 18 18 17 16 14 12 9 7 8 9 10 11 11 11 11 11 10 8 7 10 11 11 11 10 9 8 7 7 7 6 6 6 6 7 8 9 10 11 11 10 9 8 8 8 7 7 6 6 5 5 5 4 4 4 4 4 4 4 4 5 5 5 5 6 6 7 7
13 13 13 13 13 13 14 14 14 13 13 13 12 11 10 10 10 11 13 15 16 17 16 15 13 11 8 7 6 6 8 11 12 12 12 10 9 9 11 11 11 11 9 7 5 4 4 5 6 6 6 7 9 11 12 12 13 13 12 11 10 9 9 8 7 6 5 5 6 6 7 6 6 6 6 6 6 6 6 6 6 7 8 9 9 9
13 13 14 14 15 15 16 15 15 14 14 13 13 12 11 10 8 8 10 12 13 14 15 15 14 12 11 8 4 2 5 11 13 13 12 11 9 9 11 11 11 10 9 7 4 2 2 3 5 6 7 8 10 12 13 14 14 13 13 12 11 10 9 8 7 5 5 5 6 7 8 8 9 9 9 9 9 9 8 8 8 8 9 10 10 10
13 14 14 15 15 16 16 16 16 15 14 14 13 12 11 10 9 9 9 10 10 11 12 13 13 13 11 8 5 3 4 10 13 13 13 11 9 9 10 10 10 10 9 8 5 3 2 2 5 7 8 9 11 12 14 14 14 13 12 11 11 10 9 8 7 7 7 7 7 8 8 9 10 11 11 11 11 10 10 10 9 9 10 11 11 11
13 13 14 15 15 15 15 15 15 14 13 12 11 11 10 9 8 9 9 9 9 9 9 11 12 12 11 9 6 5 5 9 12 13 13 11 9 8 10 10 10 10 9 8 6 4 3 3 4 6 7 9 10 11 12 13 13 13 12 12 11 11 10 10 9 9 9 9 8 8 9 9 10 11 11 11 11 11 11 11 11 10 10 11 10 10
13 13 14 14 14 14 14 14 13 12 11 11 10 9 9 8 8 9 9 8 8 8 7 8 8 9 10 9 8 6 6 9 11 11 12 12 9 8 10 10 10 9 9 7 6 5 4 4 4 5 6 8 9 9 10 11 12 12 12 12 12 12 12 11 11 10 10 9 9 9 9 10 10 11 11 11 12 12 12 12 11 11 10 10 10 9
13 13 14 14 14 14 13 13 12 11 10 9 9 8 8 8 8 8 8 8 7 7 6 6 6 6 6 8 8 8 8 10 10 10 10 11 10 8 9 10 9 9 8 7 6 5 4 5 5 5 5 7 8 9 10 10 11 11 11 12 12 12 12 12 11 11 10 10 10 10 11 11 12 12 12 12 12 12 12 11 11 10 10 9 9 9
14 14 14 14 14 14 13 12 11 10 9 9 8 8 7 7 7 7 7 6 6 5 5 5 5 5 5 5 6 7 9 10 10 9 9 9 9 8 7 8 8 8 8 7 7 6 5 5 6 6 5 5 5 7 8 10 10 10 11 11 11 11 12 11 11 11 11 11 11 12 12 13 13 13 13 12 12 12 11 11 11 10 10 9 9 8
15 15 15 14 14 14 14 13 12 11 10 9 8 7 7 6 6 6 5 5 5 5 5 5 5 6 6 6 5 6 7 7 8 8 8 7 7 7 6 6 7 7 7 7 7 7 6 6 6 6 5 5 4 4 6 8 9 9 9 9 9 10 10 11 11 12 12 12 13 13 13 13 13 13 13 13 12 12 11 11 11 11 11 11 10 10
15 15 15 15 15 14 14 14 13 12 11 10 9 8 7 7 6 6 5 5 5 5 5 5 6 6 6 6 6 6 6 6 6 6 6 5 5 5 5 5 6 6 6 6 7 7 7 6 5 4 4 5 6 6 6 6 7 7 7 8 9 10 11 12 12 13 13 13 13 13 13 13 13 13 13 13 12 11 11 10 10 10 10 11 11 12
15 15 15 15 14 14 13 13 12 12 11 10 9 8 8 7 7 7 6 6 6 6 6 6 6 6 6 6 6 6 5 5 4 4 4 4 4 4 4 4 5 5 5 6 6 7 7 7 6 5 4 4 5 6 7 7 7 8 8 9 10 11 11 12 12 13 13 13 13 13 13 13 13 12 12 12 12 11 11 10 10 10 10 10 11 12
15 15 15 14 14 13 13 12 12 11 10 10 9 9 9 8 8 8 8 8 8 8 8 8 8 7 7 6 6 6 5 5 4 4 4 4 4 4 4 4 4 5 5 6 6 7 7 8 8 7 6 5 5 6 7 8 9 9 10 10 11 11 11 11 12 12 13 13 12 12 12 12 12 11 11 11 11 11 11 11 10 10 10 10 10 11
14 14 14 14 13 13 12 12 11 10 10 10 10 9 9 9 10 10 10 10 10 9 9 9 9 8 8 7 6 6 5 5 5 5 5 5 5 5 5 5 5 5 5 6 6 7 7 8 8 9 9 8 8 8 9 10 10 10 10 10 11 12 12 11 11 10 10 9 9 9 9 9 9 10 10 10 11 11 11 10 10 10 10 10 10 11
14 14 14 13 13 12 11 11 10 10 10 10 10 10 10 10 10 11 11 11 11 10 10 10 9 9 8 7 7 6 6 6 6 6 6 6 6 6 6 6 6 6 7 7 7 8 8 8 9 9 10 10 9 9 9 11 11 11 11 11 12 12 11 9 7 5 5 5 5 5 5 6 7 8 9 9 10 10 10 10 10 11 11 11 11 11
14 13 13 13 12 12 11 10 10 10 10 10 10 10 10 10 10 11 11 11 11 11 10 10 9 8 8 7 7 6 6 6 6 6 6 7 7 7 8 8 8 8 8 8 8 9 9 9 9 10 9 9 9 9 9 10 11 11 11 11 11 10 7 6 5 5 5 5 5 4 4 5 6 7 9 10 11 11 11 11 11 11 11 11 11 11
14 14 13 13 12 11 11 11 10 10 11 11 11 11 11 10 10 10 10 10 10 10 10 9 9 8 8 7 7 6 6 6 6 7 7 7 8 8 8 8 8 9 9 9 9 9 9 10 10 10 9 9 10 10 10 10 11 11 12 11 11 10 9 9 9 9 9 8 7 7 7 7 8 9 11 11 12 12 12 12 12 12 12 12 12 12
15 15 14 14 13 12 12 11 11 11 11 11 11 11 11 11 10 10 10 10 10 10 10 9 9 8 8 8 7 7 6 6 6 7 7 7 8 8 8 8 9 9 9 9 9 9 10 10 10 10 9 10 11 11 12 11 11 11 12 12 11 12 12 12 11 10 10 9 8 8 8 8 9 10 11 12 13 13 13 13 13 13 13 13 13 13
16 16 15 14 14 13 12 12 12 11 11 11 11 11 11 11 10 10 10 10 10 10 10 9 9 9 8 8 8 7 6 6 6 6 7 7 7 8 8 8 8 9 9 9 9 9 9 10 9 9 9 10 12 13 13 13 12 12 12 12 12 12 12 12 11 9 9 8 8 7 7 8 9 9 10 11 11 12 12 13 13 13 13 14 14 14
17 17 16 15 14 13 13 12 12 12 12 12 11 11 11 10 10 10 10 10 10 10 10 9 9 9 9 8 8 7 6 6 6 6 6 7 7 7 8 8 8 8 9 9 9 9 10 10 10 10 10 10 11 12 13 13 13 12 12 12 12 12 12 12 11 9 8 7 7 7 7 7 7 8 8 9 10 10 11 11 12 12 13 14 14 14
17 17 16 16 15 14 14 13 13 13 12 12 11 11 11 10 10 10 10 10 10 10 10 10 10 9 9 9 8 7 7 7 6 6 6 6 7 7 7 8 8 8 9 9 10 10 10 11 11 12 12 12 11 11 11 12 12 12 12 11 11 11 12 12 11 9 8 7 6 6 6 6 6 7 7 8 9 9 9 10 10 11 12 13 14 14
16 16 16 16 15 15 15 14 14 13 13 12 12 12 11 11 11 11 11 10 10 10 11 11 11 10 10 10 9 8 8 7 7 7 7 7 7 7 8 8 8 9 9 10 10 11 11 12 13 13 13 14 14 13 12 12 12 12 12 11 11 11 11 12 11 10 8 7 6 5 5 5 6 7 7 8 8 9 9 9 9 9 10 12 13 13
15 15 15 15 15 15 15 15 14 14 13 13 12 12 12 12 12 12 11 11 11 11 11 11 11 11 11 10 10 9 9 9 8 8 8 8 8 8 8 8 9 9 9 9 10 10 11 12 13 14 14 14 15 15 14 13 12 12 11 11 11 11 11 11 11 9 7 6 5 5 5 5 6 7 7 7 7 8 9 9 7 7 8 10 11 12
16 15 15 15 15 15 15 14 14 14 14 13 13 13 13 13 13 13 12 12 12 12 12 12 11 11 11 10 10 10 10 10 9 9 9 8 8 8 9 9 9 9 9 8 7 7 7 7 7 9 12 12 11 11 12 12 11 10 9 10 10 10 10 11 9 7 6 5 5 5 5 5 6 6 7 7 6 6 7 8 7 5 6 7 9 10
Wind_Direction
211 210 210 208 201 194 193 199 200 198 197 196 192 189 189 190 191 191 192 192 194 195 196 194 192 189 188 190 196 201 203 206 209 211 212 218 214 198 176 168 165 162 158 157 159 161 161 160 159 161 162 162 161 160 159 158 157 154 152 150 148 148 150 152 153 155 161 168 176 184 193 197 190 179 171 164 156 151 151 160 167 165 140 175 173 150
203 200 198 198 195 192 191 197 200 200 197 194 192 189 188 189 190 192 192 193 194 195 194 192 191 189 187 187 190 193 196 198 201 205 209 212 210 192 170 162 159 157 154 155 158 161 162 161 165 168 170 171 171 172 172 171 171 170 169 167 166 166 168 171 174 178 182 191 196 199 203 203 195 185 176 168 159 153 153 159 166 165 151 184 190 179
186 185 186 190 191 190 190 193 197 200 200 197 194 192 190 191 192 193 193 193 193 193 193 192 191 190 188 187 187 189 192 194 198 202 206 208 205 193 177 165 158 154 151 153 157 160 161 163 167 171 176 179 182 184 185 186 187 187 187 187 187 189 192 197 201 205 208 212 215 216 217 216 209 197 187 176 167 160 161 168 173 175 178 180 180 183
179 177 180 182 185 188 190 191 192 195 198 198 196 194 193 193 195 196 195 194 193 192 192 193 192 192 190 188 187 189 194 199 201 203 204 204 200 192 181 168 159 154 152 152 155 159 161 164 167 172 177 183 189 194 199 202 205 207 207 208 209 211 214 218 223 227 230 232 233 233 232 230 225 215 204 194 184 176 178 182 187 192 197 190 180 187
178 177 178 175 176 183 189 191 191 191 194 195 195 194 195 196 197 197 197 196 194 193 193 194 194 194 192 190 190 193 200 204 204 201 200 197 192 186 177 167 161 157 156 155 157 160 163 166 168 172 177 184 193 204 213 220 223 225 225 225 225 227 230 234 238 242 245 246 247 246 244 241 237 230 220 210 201 193 187 187 191 196 203 200 200 207
177 177 176 173 173 178 184 188 189 190 190 191 193 194 196 197 198 198 197 197 196 195 195 197 197 197 195 193 190 188 189 191 191 190 190 187 183 177 171 165 162 160 159 158 160 164 166 170 172 174 177 183 195 209 218 225 229 232 233 234 237 240 244 249 253 257 259 260 258 255 251 247 242 236 229 219 211 203 197 191 189 191 194 200 205 216
174 175 175 175 177 181 183 184 187 189 187 188 190 192 194 195 196 196 197 198 198 197 198 199 198 196 194 194 189 180 171 168 167 169 172 174 173 170 166 164 163 163 162 163 165 169 173 176 179 181 182 186 193 202 208 209 214 222 233 244 255 266 272 275 277 278 279 277 272 264 256 249 243 237 231 223 216 209 203 197 192 188 187 192 201 212
167 172 175 177 179 181 182 183 187 189 190 188 186 186 186 188 190 192 195 197 198 198 196 194 190 186 186 189 186 180 172 166 163 161 160 160 161 161 161 162 163 164 166 167 172 177 181 185 189 190 191 193 198 206 213 216 223 235 252 267 278 286 290 292 293 294 295 292 286 275 261 248 239 232 227 222 216 210 205 199 194 190 189 191 196 201
167 170 177 181 179 176 177 182 187 190 192 191 187 183 180 179 181 184 187 190 193 194 191 183 176 173 176 181 182 180 176 171 167 163 160 159 158 158 158 159 160 163 168 172 178 184 187 190 191 192 195 202 213 224 234 243 254 265 275 283 288 291 292 294 296 298 299 295 289 276 261 241 229 220 217 216 214 211 206 201 196 192 191 191 191 193
172 172 176 181 182 180 177 180 186 190 193 193 192 189 183 177 174 174 176 180 183 185 184 177 172 169 170 176 179 180 178 175 173 171 168 166 165 165 165 165 165 167 171 175 179 183 186 188 189 193 200 211 227 242 255 266 277 284 288 290 291 290 290 292 295 298 297 280 191 148 139 143 172 196 203 207 209 209 207 202 198 195 192 191 190 187
173 174 174 177 182 184 183 184 186 188 191 192 192 192 190 185 178 172 170 174 176 177 178 176 174 171 170 173 177 181 181 180 179 178 177 176 176 177 179 180 182 184 187 189 191 192 193 193 196 203 213 224 240 256 269 278 286 291 292 291 289 287 286 289 293 294 285 204 159 147 142 130 120 121 146 180 194 200 203 203 201 199 196 193 190 189
171 174 176 178 180 182 185 186 186 186 186 185 185 185 187 189 187 181 175 174 174 175 175 175 176 176 176 176 178 181 184 184 183 183 184 185 186 188 191 194 199 204 208 212 216 217 217 214 215 222 232 241 252 264 275 282 288 290 289 285 280 278 278 282 286 285 247 177 161 154 147 133 117 106 102 111 139 168 184 195 200 201 199 196 193 191
173 175 177 179 180 181 182 181 180 181 182 183 184 185 187 189 190 187 182 178 177 176 176 175 176 179 182 183 183 184 185 186 187 188 189 191 194 197 200 203 208 214 220 225 229 232 234 233 236 241 247 253 260 269 277 283 286 285 280 271 264 259 257 260 263 252 209 174 163 157 148 136 121 110 103 103 114 128 145 161 181 191 193 192 191 192
171 173 174 176 180 183 183 180 178 180 185 190 192 192 192 190 189 187 183 179 178 179 178 177 177 180 184 187 190 190 189 189 190 191 193 196 198 201 204 208 212 218 224 229 232 235 238 239 243 248 254 259 264 269 275 280 280 275 260 242 227 219 219 228 234 228 200 172 161 155 147 138 130 120 113 112 117 127 134 141 152 163 171 174 177 181
169 171 173 179 184 186 187 185 185 188 191 194 195 195 194 190 187 184 179 176 176 178 178 178 179 182 186 190 193 195 195 195 194 195 198 200 203 206 208 212 217 223 228 232 235 237 238 240 244 249 255 259 264 267 271 271 263 242 210 191 191 203 216 226 229 222 198 173 160 154 149 145 143 139 132 129 132 140 145 150 153 155 158 159 161 163
177 176 180 186 190 192 193 192 192 193 194 196 196 195 190 185 184 183 180 176 175 175 174 173 175 183 192 195 197 198 199 199 201 202 203 206 209 213 216 220 225 231 236 238 240 240 241 242 246 250 254 257 260 262 259 248 222 192 179 184 199 215 227 234 231 220 201 180 165 159 156 161 163 163 159 156 157 160 167 171 172 169 165 162 160 161
186 188 191 192 194 196 198 196 195 195 197 197 197 195 191 186 185 184 181 178 175 174 174 174 172 179 195 201 201 201 202 202 204 207 210 212 216 221 224 226 231 237 241 243 244 244 245 245 247 248 250 251 250 247 233 209 182 172 179 196 214 229 239 238 231 220 209 190 176 169 170 176 182 183 180 178 177 180 187 194 195 190 182 176 174 175
195 197 198 199 199 199 199 197 196 198 199 196 195 195 195 192 190 188 185 181 177 176 178 179 178 176 175 191 201 203 203 203 205 209 213 216 221 225 229 231 234 239 243 245 246 245 245 245 244 243 241 239 233 222 203 184 173 176 189 206 222 235 242 238 233 232 230 207 184 175 175 183 191 194 193 192 192 194 198 208 213 207 196 190 188 189
201 203 203 204 203 201 199 198 197 198 197 195 193 191 190 192 192 191 189 185 182 180 180 182 183 182 181 185 197 202 203 204 206 209 213 218 222 226 232 233 234 237 241 244 245 243 241 238 236 233 230 225 216 204 190 181 181 187 196 208 220 229 234 236 242 252 255 220 185 174 176 187 194 196 197 197 196 195 195 202 209 212 203 197 196 199
208 210 209 207 204 201 200 202 203 202 199 198 194 189 185 187 189 190 190 188 186 185 185 185 186 188 190 193 196 198 200 202 205 208 212 217 222 227 231 231 231 233 237 240 240 237 232 227 223 220 217 213 207 198 191 187 188 192 196 202 212 222 230 240 256 268 263 216 182 176 183 190 196 197 198 198 198 196 193 187 177 174 204 206 204 205
218 219 221 218 211 205 205 209 209 208 205 200 193 187 184 185 185 187 190 191 190 189 189 188 189 192 196 196 193 191 194 197 200 205 210 213 220 226 230 230 229 228 230 231 230 226 220 215 211 208 207 206 204 200 198 197 196 195 193 196 205 217 230 246 266 274 251 199 180 180 191 197 200 202 204 204 205 205 203 198 189 178 175 203 217 216
232 234 234 229 222 217 218 220 219 214 209 202 193 187 185 184 185 187 191 191 190 189 190 191 193 195 197 195 188 182 183 189 196 202 207 208 214 224 228 225 222 221 221 220 217 212 208 205 203 204 205 207 207 208 209 209 207 201 193 193 202 217 232 251 269 263 209 178 174 179 193 198 201 206 209 212 214 214 212 206 198 190 194 215 225 223
232 239 237 232 228 228 230 231 226 219 212 204 198 195 196 194 192 192 193 192 191 190 191 192 193 193 194 191 184 179 178 183 191 199 204 204 211 219 221 214 210 210 210 208 205 201 199 198 199 202 206 210 213 216 218 219 214 204 193 191 201 215 230 246 251 201 170 167 169 177 188 193 199 206 212 217 219 218 215 209 206 205 213 224 232 232
204 209 212 215 218 223 230 234 227 218 210 206 203 203 204 202 201 199 197 195 193 192 190 189 186 183 183 184 181 180 183 186 193 199 204 205 208 210 207 201 198 197 200 199 197 194 194 196 199 203 208 213 218 223 226 225 216 204 191 193 200 208 219 221 196 171 169 172 176 184 194 197 203 210 217 221 222 220 218 212 209 210 215 223 231 236
174 170 172 177 183 191 200 209 210 207 203 201 201 201 201 201 200 198 195 193 191 190 186 180 171 165 169 175 178 182 189 195 199 202 204 204 200 196 194 190 188 189 191 192 193 194 196 198 203 209 215 220 226 230 230 224 210 196 189 191 196 199 200 192 185 184 187 188 194 201 206 209 212 215 218 221 222 225 227 224 219 218 221 223 224 226
165 160 158 157 159 160 164 167 173 179 185 188 191 194 195 194 193 190 187 187 186 183 177 167 161 164 171 175 179 186 194 200 203 204 204 198 189 184 185 184 184 186 189 190 192 197 201 205 212 220 226 231 232 229 220 208 196 187 185 188 189 189 188 186 185 189 193 199 205 210 213 215 216 218 219 220 220 222 228 235 238 237 235 233 231 230
162 157 154 153 152 152 152 152 154 158 164 171 179 185 188 188 185 179 175 179 183 180 172 165 163 170 175 178 185 192 197 200 202 203 202 196 185 180 182 182 183 186 189 191 195 201 207 214 222 230 235 236 230 216 198 187 179 177 182 184 184 184 185 185 185 187 189 195 202 209 213 215 216 217 219 220 220 221 225 233 246 257 260 257 251 246
154 153 152 152 151 150 148 147 148 151 156 162 170 178 185 187 181 175 175 181 184 182 176 172 167 164 169 178 188 194 198 199 200 199 197 191 185 182 184 183 184 187 190 193 199 206 214 221 227 231 231 226 215 198 186 175 167 165 173 177 179 180 183 185 187 188 188 190 192 197 203 210 213 216 219 221 223 223 226 230 239 246 253 257 260 261
148 148 148 148 148 148 147 147 148 151 154 159 166 174 182 188 187 185 184 184 183 181 179 177 175 170 166 176 186 193 197 199 198 197 194 189 187 186 186 184 185 187 189 191 198 210 219 224 226 222 214 205 192 182 176 171 165 162 165 168 172 177 183 188 191 195 197 198 197 195 196 199 206 211 217 221 224 227 230 233 239 245 248 253 258 263
149 148 145 144 146 147 148 147 148 151 155 160 164 168 176 185 193 195 189 185 183 183 182 181 179 173 163 159 165 185 201 203 199 195 193 190 188 186 185 184 186 187 187 185 185 197 213 216 213 203 194 186 180 176 175 174 172 171 171 173 177 183 190 196 203 210 217 219 215 211 207 206 207 211 215 220 225 229 233 238 245 253 257 260 263 266
153 151 148 148 149 150 149 148 148 151 157 162 165 168 173 178 183 186 186 186 188 190 189 186 183 178 169 152 141 171 203 203 198 194 193 190 186 184 185 184 185 187 188 184 170 151 172 190 190 186 182 181 180 179 179 180 181 182 183 185 188 194 201 210 223 240 254 254 245 235 227 224 222 222 224 226 230 234 238 242 250 259 266 268 269 269
154 153 151 151 152 152 152 152 154 157 161 165 168 172 176 177 177 176 177 182 188 192 194 191 189 186 182 174 169 175 186 192 192 192 192 188 184 184 186 184 183 185 188 190 182 157 141 152 171 177 178 181 183 185 187 189 191 193 196 198 203 209 219 230 247 264 275 277 270 259 247 241 237 236 236 238 240 244 247 249 253 260 266 270 271 271
152 151 151 151 152 153 155 157 159 161 163 166 169 173 175 175 174 172 171 174 178 184 189 189 189 188 188 187 183 176 175 179 182 186 188 186 182 181 185 184 182 181 185 190 192 182 155 144 158 172 180 184 188 191 195 199 203 207 211 215 222 229 238 247 260 271 278 280 277 270 262 256 252 249 249 251 253 255 258 258 258 259 262 265 268 269
150 149 150 151 153 154 156 159 162 164 165 167 168 169 168 166 164 162 162 164 167 172 178 182 184 186 186 185 182 176 173 173 174 178 182 185 181 177 184 184 183 182 184 188 194 194 179 164 157 162 179 190 195 199 203 208 213 218 223 229 235 242 249 256 264 271 275 275 273 270 267 264 262 260 260 261 262 264 264 264 261 258 256 259 261 263
152 152 153 154 156 157 160 163 165 168 169 169 168 165 162 158 156 155 155 156 159 163 168 172 175 180 185 186 183 179 175 173 172 173 177 183 183 180 184 187 191 191 190 191 193 191 184 180 173 166 170 190 203 211 214 217 221 225 231 236 242 247 253 258 263 268 270 270 269 268 269 269 268 268 267 267 267 267 266 264 260 254 248 247 251 256
157 158 159 162 163 164 166 169 172 174 174 174 171 168 164 161 159 157 157 158 160 163 165 168 169 170 173 181 184 181 174 172 171 172 175 182 187 188 188 193 199 202 199 197 195 190 182 181 184 184 180 184 199 214 222 224 225 229 234 239 244 248 252 257 261 264 267 268 269 270 271 272 272 272 271 270 269 268 267 264 260 253 243 233 234 243
164 165 167 170 171 172 173 176 179 180 180 180 178 176 175 174 173 173 173 173 174 174 174 172 171 171 171 173 172 168 166 167 169 170 173 180 187 194 197 197 202 206 205 202 198 193 187 181 187 197 201 198 197 202 212 220 223 226 232 239 245 250 255 260 264 267 270 271 272 272 273 273 273 273 272 271 270 269 268 265 260 254 244 232 224 225
172 173 175 177 179 180 180 181 183 184 186 186 186 186 188 189 189 188 187 185 184 182 179 176 172 170 169 170 169 166 164 165 167 169 173 179 186 193 199 199 201 203 203 205 205 201 194 183 179 187 202 211 212 209 209 214 218 222 230 240 249 256 262 267 270 272 274 274 274 273 272 271 271 270 270 269 269 267 265 261 257 253 247 238 230 224
180 180 181 183 185 186 187 188 189 191 193 193 194 196 197 197 196 193 189 186 183 181 179 175 171 168 167 167 169 171 172 173 175 179 185 191 196 200 202 202 202 202 201 203 207 208 205 197 191 187 189 202 213 219 223 226 229 234 241 250 256 260 265 269 273 275 276 275 274 272 270 268 266 265 265 265 265 263 260 257 254 251 247 242 236 231
187 187 187 187 188 190 192 193 195 196 197 198 199 200 199 196 193 190 187 184 181 179 178 175 173 171 170 171 174 178 183 188 194 201 208 216 221 223 219 216 213 211 209 208 210 213 214 214 213 211 209 208 213 223 232 239 245 252 259 264 267 268 268 273 276 277 276 274 271 268 265 263 260 259 258 259 258 257 256 256 255 253 250 246 242 239
191 190 189 188 189 190 193 195 195 195 194 194 193 192 191 188 185 182 181 180 178 178 177 176 176 176 178 180 184 189 196 203 210 217 224 230 235 237 236 231 228 225 223 221 222 224 225 225 226 228 230 232 237 242 246 251 256 262 267 270 275 279 282 283 281 278 275 272 268 264 260 257 254 253 252 253 254 255 256 256 255 255 253 250 247 245
192 190 188 186 187 188 190 189 188 187 186 185 184 182 181 180 179 178 177 176 176 177 179 180 181 181 183 187 193 201 208 217 223 229 233 236 239 240 240 238 236 234 233 231 231 232 234 236 237 239 241 244 246 250 256 260 264 267 268 271 280 288 293 290 284 277 276 276 274 268 259 254 250 249 250 251 253 255 257 257 256 255 255 253 251 249
190 188 185 184 185 185 184 182 180 179 177 177 175 175 174 175 175 176 176 176 176 177 180 183 185 187 189 193 200 209 216 224 230 234 236 237 238 239 239 238 238 238 238 237 237 238 241 243 245 247 251 254 254 253 257 264 269 271 272 275 279 285 287 285 282 282 282 283 282 280 272 263 256 254 254 254 256 257 257 258 257 256 256 255 255 254
185 182 181 182 183 182 180 178 176 174 173 172 171 170 171 172 174 175 177 177 178 179 182 186 191 194 197 200 205 212 219 224 229 232 233 234 234 234 235 235 236 237 239 241 242 243 246 249 251 254 257 259 259 258 259 263 268 272 275 278 276 271 265 272 279 282 281 278 275 273 271 268 264 261 259 259 258 257 258 258 258 258 257 256 256 256
178 177 178 180 180 179 178 175 173 171 170 170 170 170 170 172 175 177 179 179 181 183 186 191 194 197 201 205 208 211 216 220 223 225 227 228 228 229 230 231 233 235 238 241 245 247 249 251 254 258 259 260 259 259 259 261 265 270 276 278 278 275 274 279 281 280 276 274 271 269 269 268 268 267 266 264 261 259 258 257 257 258 258 258 257 257
175 176 178 180 181 180 178 175 172 170 170 170 171 172 173 174 176 179 182 184 184 186 191 197 200 201 204 208 209 209 210 211 214 217 219 221 222 223 225 227 229 232 235 238 242 245 248 250 253 257 258 259 260 261 261 262 264 267 272 276 277 278 281 284 283 280 277 274 273 272 270 269 271 272 272 269 265 261 258 256 256 256 257 258 258 257
176 177 179 181 181 181 179 176 175 173 173 174 174 175 176 177 179 181 185 188 190 192 195 201 207 210 213 214 214 212 209 207 207 207 211 214 216 218 219 222 225 229 232 235 238 241 243 246 248 250 252 255 258 261 265 266 266 266 269 273 276 277 279 281 281 280 277 275 275 277 275 274 275 276 275 273 268 264 260 257 255 254 255 256 257 257
177 178 180 181 182 182 182 181 180 180 181 181 181 182 182 184 185 187 190 192 196 198 201 205 211 216 219 221 221 220 217 214 211 208 208 209 212 214 215 218 221 225 229 233 236 239 241 243 245 247 249 251 253 257 263 267 268 267 269 271 273 273 274 279 282 282 277 274 273 274 275 276 277 278 279 279 277 272 264 258 255 254 254 255 255 257
179 180 181 182 183 184 185 186 187 188 189 189 189 189 191 193 195 197 198 199 202 205 208 211 215 219 223 224 225 224 223 221 218 215 213 212 212 212 214 217 220 224 228 233 237 240 244 247 249 251 254 256 256 256 260 264 267 268 269 269 268 268 271 275 280 283 280 276 272 269 268 267 268 270 275 280 284 282 274 264 256 252 251 253 255 257
186 186 186 187 187 189 190 191 192 194 195 196 196 196 198 200 202 204 205 206 208 211 214 216 218 221 225 227 226 225 224 222 221 219 217 216 216 215 215 217 219 223 227 234 240 246 252 257 258 259 261 261 259 257 257 259 263 266 267 265 264 264 266 271 277 282 283 280 273 265 260 257 258 262 268 273 279 283 284 278 264 248 244 248 253 256
195 196 196 196 196 197 197 197 198 198 199 200 200 201 202 204 206 207 208 209 211 214 217 219 221 223 225 227 227 226 225 224 223 221 219 219 218 218 217 218 219 220 223 229 238 250 261 266 268 268 267 263 260 257 253 252 254 258 259 260 261 262 265 269 275 281 284 282 274 265 257 252 251 255 261 266 271 277 284 285 276 254 238 240 245 250